Skip Page Navigation
NASA JPL Caltech
NASA Logo - Jet Propulsion Laboratory + View the NASA Portal
+ Near-Earth Object (NEO) Program
Search JPL
JPL Home Earth Solar System Stars & Galaxies Technology
JPL Solar System Dynamics
BODIES ORBITS EPHEMERIDES TOOLS PHYSICAL DATA DISCOVERY FAQ SITE MAP
JPL Small-Body Database Browser
Search: [ help ]  
(1995 GJ)
Classification: TransNeptunian Object          SPK-ID: 3031961
Ephemeris | Orbit Diagram | Orbital Elements | Physical Parameters ]

[ show orbit diagram ]
Orbital Elements at Epoch 2449800.5 (1995-Mar-24.0) TDB
Reference: MPC25185 (heliocentric ecliptic J2000)
 Element Value Uncertainty (1-sigma)   Units 
e 0.0909134 n/a  
a 42.9072318 n/a AU
q 39.0063895 n/a AU
i 22.93041 n/a deg
node 338.92892 n/a deg
peri 180.29088 n/a deg
M 359.96486 n/a deg
tp 2449810.5205887
(1995-Apr-03.02058870)
n/a JED
period 102658.2791050
281.06
n/a
n/a
d
yr
n 0.00350678 n/a deg/d
Q 46.8080741 n/a AU
  Orbit Determination Parameters
   # obs. used (total)      6  
   data-arc span      1 day  
   first obs. used      1995-04-03  
   last obs. used      1995-04-04  
   # oppositions      1  
   two-body model      T  
   condition code      E  
   data source      MPC:mp1  
   producer      Marsden  

Additional Information
 T_jup = 5.389 
 MPC Cubewano 
 1-opposition object seen prior 

Ephemeris | Orbit Diagram | Orbital Elements | Physical Parameters ]

Physical Parameter Table
Parameter Symbol Value Units Sigma Reference Notes
absolute magnitude H 7.0 mag n/a MPC25185  
Ephemeris | Orbit Diagram | Orbital Elements | Physical Parameters ]
ABOUT SSD CREDITS/AWARDS PRIVACY/COPYRIGHT GLOSSARY LINKS
FirstGov 2013-May-22 09:22 UT
(server date/time)  
NASA Home Page
Site Manager:   Donald K. Yeomans
Webmaster  Alan B. Chamberlin